Location: ??
(34.7707°N, 135.6540°E)
Time: 22:23:08
(UTC+00:00)

Cosmos 2263 Rocket - Pass Details

Date: 09 April 2020
Orbit: 823 x 849 km, 71.0° (Epoch: 24 May)

Event Time Altitude Azimuth Distance (km) Brightness Sun altitude
Exits shadow 18:46:30 30° 194° (SSW) 1,476 3.1 -21.4°
Maximum altitude 18:49:26 82° 110° (ESE) 855 2.2 -20.9°
Drops below altitude 10° 18:55:08 10° 23° (NNE) 2,475 5.3 -19.8°
Sets 18:57:35 0° 23° (NNE) 3,415 6.1 -19.4°
